{"data":{"norad_id":33278,"epoch":"2026-09-20T04:00:00.237024Z","epoch_age_seconds":43474,"freshness":"FRESH","line1":"1 33278U 08039A   26263.16666941 -.00000142  00000+0  00000+0 0  9997","line2":"2 33278   4.3855  31.7684 0003070 171.1774 118.1487  1.00271474 47497","mean_motion":1.00271474,"eccentricity":0.000307,"inclination_deg":4.3855,"raan_deg":31.7684,"arg_perigee_deg":171.1774,"mean_anomaly_deg":118.1487,"bstar":0,"rev_number":4749,"period_min":1436.1013581988,"perigee_km":35773.737546528,"apogee_km":35799.626745483,"semimajor_km":42164.819146006,"source":"CELESTRAK","updated_at":"2026-09-20T09:00:35.133931Z"}}